Regional Weather Roundup
Issued by NWS

Home | Current Version | Previous Version | Text Only | Print | Product List | Glossary On
Versions: 1 2 3 4 5 6 7 8 9 10 11 12 13 14 15 16 17 18 19 20 21 22 23 24 25 26 27 28 29 30 31 32 33 34 35 36 37 38 39 40 41 42 43 44 45 46 47 48 49 50
000
ASUS46 KLOX 301113
RWRCA

SOUTHERN CALIFORNIA WEATHER ROUNDUP
NATIONAL WEATHER SERVICE OXNARD CALIFORNIA
400 AM PDT MON MAY 30 2016

NOTE: "FAIR" INDICATES FEW OR NO CLOUDS BELOW 12,000 FEET WITH NO
SIGNIFICANT WEATHER AND/OR OBSTRUCTIONS TO VISIBILITY.

  -  STATIONS PRECEEDED BY AN ASTERISK (*) ARE NOT NWS OR FAA
     STATIONS AND ARE NOT SUBJECT TO NWS AND FAA QUALITY CONTROL.

CAZ041-042-087-301200-
LA AND ORANGE COUNTY COASTAL AREAS


CITY           SKY/WX    TMP DP  RH WIND       PRES   REMARKS
L.A. DOWNTOWN  MOCLDY    58  54  86 CALM      29.99S
L.A. AIRPORT   PTCLDY    58  54  86 W5        29.99S
LONG BEACH     MOCLDY    60  55  83 N3        29.99S

CITY           SKY/WX    TMP DP  RH WIND       PRES   REMARKS
AVALON           N/A     59 N/A N/A E1          N/A
FULLERTON      CLOUDY    62  55  77 CALM      29.98S
*GETTY CENTER    N/A     52  52 100 E1          N/A
HAWTHORNE      MOCLDY    60  54  80 CALM      29.99S
*LOS ALAMITOS  CLOUDY    61  55  80 N3        29.99S
*REDONDO BEACH   N/A     59  54  84 CALM      29.99S
SANTA ANA      CLOUDY    62  54  74 N3        29.99S
STA MONICA APT CLOUDY    58  54  86 CALM      29.99S
*STA MON PIER    N/A     59  55  88 CALM      29.93R
*UCLA            N/A     55  50  82 CALM      29.97R

$$

CAZ547-548-048-301200-
LA COUNTY VALLEYS AND INLAND EMPIRE


CITY           SKY/WX    TMP DP  RH WIND       PRES   REMARKS
BURBANK        CLEAR     56  53  90 E6        29.98S
VAN NUYS       CLEAR     57  51  80 SE5       29.98S

CITY           SKY/WX    TMP DP  RH WIND       PRES   REMARKS
CORONA AIRPORT CLOUDY    56  52  86 CALM      30.00S
*CHATSWORTH      N/A     56  50  79 CALM      29.99S
CHINO          CLOUDY    59  52  77 CALM      30.00S
MARCH AFB      CLOUDY    57  55  94 NW6       29.99S
*NORTHRIDGE      N/A     55  50  82 CALM        N/A
ONTARIO        CLOUDY    56  51  84 NW5       29.99S
*PASADENA        N/A     55  54  94 E1          N/A
RIVERSIDE      CLOUDY    59  51  75 W3        29.99F
SAN BERNARDINO NOT AVBL
*SAUGUS          N/A     53  50  89 N2          N/A
*WHITEMAN AP   NOT AVBL
*WHITTIER HILL   N/A     56  55  95 N2          N/A
*WOODLAND HILL   N/A     54  48  82 SE2         N/A

$$

CAZ054-055-301200-
LA AND SAN BERNARDINO COUNTY MOUNTAINS


CITY           SKY/WX    TMP DP  RH WIND       PRES   REMARKS
*BIG BEAR AIRP SUNNY     37  32  81 CALM      30.15F
SANDBERG       LGT RAIN  61  41  47 VRB5      30.08S

$$

CAZ028-029-059-060-099-301200-
ANTELOPE VALLEY AND SURROUNDING AREAS


CITY           SKY/WX    TMP DP  RH WIND       PRES   REMARKS
LANCASTER      CLEAR     69  42  37 W20       29.94R
PALMDALE       CLEAR     65  43  44 S10       29.97R

CITY           SKY/WX    TMP DP  RH WIND       PRES   REMARKS
29 PALMS       CLEAR     68  39  34 N5        29.96S
BARSTOW/DAGGET CLEAR     67  43  41 W9        29.90S
BISHOP         CLEAR     59  37  44 W9        30.07R
CHINA LAKE     CLEAR     63  36  36 S5        29.90R
EDWARDS AFB    CLEAR     65  43  45 S10       29.92R
MOJAVE         CLEAR     72  41  33 W26G35    29.93S
NEEDLES        CLEAR     70  26  19 S3        29.83S
VICTORVILLE    CLEAR     61  43  51 CALM      29.97S

$$

CAZ039-040-301200-
VENTURA AND SANTA BARBARA COUNTY COAST


CITY           SKY/WX    TMP DP  RH WIND       PRES   REMARKS
CAMARILLO      CLOUDY    59  53  80 E8        29.98S
NWS OXNARD       N/A     58  53  82 W3        29.97S
OXNARD AIRPORT CLOUDY    59  55  87 W3        29.98F
SBA APT/GOLETA CLOUDY    58  54  86 CALM      29.97F
*SANTA BARBARA   N/A     59  53  80 CALM      30.05F
*VENTURA         N/A     58  54  87 NE1       29.97S

$$

CAZ044-045-301200-
VENTURA COUNTY VALLEYS


CITY           SKY/WX    TMP DP  RH WIND       PRES   REMARKS
*SIMI VALLEY     N/A     51  49  92 CALM      29.94F
*WESTLAKE VILL   N/A     49  46  89 CALM      29.97S
*OJAI            N/A     59  54  83 CALM      29.92R
*FILLMORE        N/A     54  50  84 CALM      29.88F

$$

CAZ053-301200-
VENTURA COUNTY MOUNTAINS


CITY           SKY/WX    TMP DP  RH WIND       PRES   REMARKS
*ROSE VALLEY     N/A     45  45 100 MISG        N/A

$$

CAZ034-035-036-301200-
CENTRAL COAST AND SANTA YNEZ VALLEY


CITY           SKY/WX    TMP DP  RH WIND       PRES   REMARKS
SAN LUIS OBISP CLOUDY    57  52  83 W5        30.00S
SANTA MARIA    CLOUDY    55  53  93 N3        30.00F

CITY           SKY/WX    TMP DP  RH WIND       PRES   REMARKS
*CAL POLY SLO    N/A     55  54  94 W3          N/A
*LOMPOC        CLOUDY    55  52  89 N5        30.00F
*PISMO BEACH     N/A     56  53  89 NE1       30.00S
*SANTA YNEZ    CLOUDY    55  52  88 E3        29.99F

$$

CAZ037-038-051-301200-
SAN LUIS OBISPO COUNTY INTERIOR AND CUYAMA VALLEY


CITY           SKY/WX    TMP DP  RH WIND       PRES   REMARKS
*CUYAMA          N/A     55  41  58 SE2       29.92S
PASO ROBLES    CLEAR     51  48  89 CALM      29.99F

$$

CAZ032-033-061-301200-
SOUTHERN DESERTS


CITY           SKY/WX    TMP DP  RH WIND       PRES   REMARKS
BLYTHE         CLEAR     71  40  32 SE8       29.82S
IMPERIAL       CLEAR     70  51  51 SE3       29.81S
PALM SPRINGS   CLEAR     70  51  51 NW8       29.84S
THERMAL        CLEAR     71  51  49 NW13      29.79S

$$

ELSEWHERE ACROSS THE WESTERN UNITED STATES AND MEXICO


CITY           SKY/WX    TMP DP  RH WIND       PRES   REMARKS
DEATH VALLEY,    N/A     86  25  11 E6          N/A
DENVER, CO     PTCLDY    50  40  68 SW10      30.06F
GRAND CANYON,  CLEAR     32  15  49 CALM      30.17S
HONOLULU, HI   PTCLDY    72  68  88 N6        30.02F
KAHULUI, MAUI  CLEAR     70  64  83 SE6       30.02F
LAKE TAHOE, CA CLEAR     37  33  85 CALM      30.23S
LAS VEGAS, NV  PTCLDY    72  20  14 SW5       29.86R
MAMMOTH LAKES, FAIR      44  35  71 NW5       30.25S
MEXICO CITY, M MOCLDY    59  54  82 E5        30.35S
PHOENIX, AZ    CLEAR     73  31  21 E3        29.86S
PORTLAND, OR   CLEAR     51  44  77 N3        30.25S
RENO, NV       PTCLDY    57  35  43 SW5       30.15S
SALT LAKE CITY CLOUDY    58  47  66 S8        30.08F
SAN DIEGO, CA  CLOUDY    62  57  83 CALM      30.00F
SAN FRANCISCO, MOCLDY    54  48  80 W3        29.98F
SAN JOSE, CA   CLEAR     55  50  83 SE10      29.98S
SEATTLE, WA    CLEAR     50  42  74 N9        30.28S
TIJUANA, MEX   DRIZZLE   59  55  88 W3        30.02S FOG

$$

STATION/POSITION TIME  TEMP    WIND        PRES    VSBY  WAVE
                       AIR SEA DIR/SP/G                  HT/PER
                 (UTC) (F)     (DEG/KT/KT) (MB)    (MI)  (FT/S)
POINT ARGUELLO B NOT AVBL
WEST SANTA BARBA 1050   54 56  330/ 14/ 16 1015.0F         4/ 9
POINT CONCEPTION NOT AVBL
EAST SANTA BARBA 1000   57 58  210/  6/  8 1016.0S
SANTA MONICA BAY 1050   59 63  350/  4/  6 1015.6F         3/19


USA.gov is the U.S. government's official web portal to all federal, state and local government web resources and services.